When you browse on this site, cookies collect data to enhance your experience and personalize the content and advertising you see.
Visit our Privacy Policy to learn more. By continuing to use the site, you agree to this use of cookies and data.
  • In Czech Republic
  • List of Countries
  • For 7 days
  • Water Temperature
  • Satellite Maps
  • Weather Map
  • Weather Widgets
  • user-avatar
    Login

    Hourly Weather Vatican

    Today, 15 December, Saturday

    Time Temperature Precipitation Wind Pressure Humidity
    00:00 +9°C° 0.2 mm 6 mps 757 mmHg 85%
    01:00 +8°C° 0 mm 6 mps 757 mmHg 86%
    02:00 +8°C° 0.1 mm 7 mps 757 mmHg 85%
    03:00 +8°C° 0.1 mm 7 mps 757 mmHg 83%
    04:00 +6°C° 0.1 mm 7 mps 757 mmHg 82%
    05:00 +6°C° 0 mm 7 mps 758 mmHg 81%
    06:00 +5°C° 0 mm 7 mps 758 mmHg 80%
    07:00 +5°C° 0 mm 7 mps 758 mmHg 80%
    08:00 +6°C° 0 mm 7 mps 758 mmHg 77%
    09:00 +6°C° 0 mm 7 mps 759 mmHg 75%
    10:00 +8°C° 0 mm 7 mps 759 mmHg 72%
    11:00 +7°C° 0 mm 8 mps 759 mmHg 69%
    12:00 +9°C° 0 mm 8 mps 759 mmHg 66%
    13:00 +10°C° 0 mm 8 mps 759 mmHg 63%
    14:00 +10°C° 0 mm 8 mps 760 mmHg 63%
    15:00 +9°C° 0 mm 8 mps 760 mmHg 64%
    16:00 +9°C° 0 mm 8 mps 760 mmHg 64%
    17:00 +7°C° 0 mm 8 mps 760 mmHg 65%
    18:00 +6°C° 0 mm 7 mps 761 mmHg 66%
    19:00 +5°C° 0 mm 7 mps 761 mmHg 68%
    20:00 +5°C° 0 mm 6 mps 761 mmHg 68%
    21:00 +5°C° 0 mm 6 mps 762 mmHg 68%
    22:00 +5°C° 0 mm 5 mps 762 mmHg 68%
    23:00 +5°C° 0 mm 5 mps 762 mmHg 67%

    Tomorrow, 16 December, Sunday

    Time Temperature Precipitation Wind Pressure Humidity
    00:00 +5°C° 0 mm 5 mps 762 mmHg 66%
    01:00 +5°C° 0 mm 4 mps 763 mmHg 66%
    02:00 +4°C° 0 mm 4 mps 763 mmHg 64%
    03:00 +4°C° 0 mm 3 mps 762 mmHg 63%
    04:00 +4°C° 0 mm 3 mps 762 mmHg 62%
    05:00 +4°C° 0 mm 3 mps 762 mmHg 62%
    06:00 +5°C° 0 mm 2 mps 763 mmHg 61%
    07:00 +5°C° 0 mm 2 mps 763 mmHg 61%
    08:00 +6°C° 0 mm 2 mps 763 mmHg 59%
    09:00 +7°C° 0 mm 2 mps 763 mmHg 56%
    10:00 +9°C° 0 mm 1 mps 764 mmHg 54%
    11:00 +10°C° 0 mm 1 mps 763 mmHg 50%
    12:00 +11°C° 0 mm 1 mps 763 mmHg 47%
    13:00 +11°C° 0 mm 1 mps 763 mmHg 44%
    14:00 +11°C° 0 mm 1 mps 763 mmHg 45%
    15:00 +11°C° 0 mm 1 mps 762 mmHg 46%
    16:00 +10°C° 0 mm 2 mps 762 mmHg 48%
    17:00 +9°C° 0 mm 2 mps 762 mmHg 50%
    18:00 +9°C° 0 mm 3 mps 763 mmHg 51%
    19:00 +8°C° 0 mm 3 mps 763 mmHg 53%
    20:00 +8°C° 0.1 mm 4 mps 762 mmHg 57%
    21:00 +8°C° 0.1 mm 6 mps 761 mmHg 60%
    22:00 +8°C° 0.1 mm 7 mps 761 mmHg 64%
    23:00 +7°C° 0.5 mm 8 mps 760 mmHg 68%

    Day after tomorrow, 17 December, Monday

    Time Temperature Precipitation Wind Pressure Humidity
    00:00 +9°C° 0.5 mm 8 mps 759 mmHg 72%
    01:00 +8°C° 0.5 mm 9 mps 758 mmHg 76%
    02:00 +8°C° 1 mm 9 mps 758 mmHg 79%
    03:00 +10°C° 1 mm 8 mps 757 mmHg 83%
    04:00 +10°C° 1 mm 8 mps 756 mmHg 86%
    05:00 +10°C° 0.4 mm 8 mps 757 mmHg 87%
    06:00 +10°C° 0.4 mm 8 mps 757 mmHg 87%
    07:00 +11°C° 0.4 mm 8 mps 757 mmHg 87%
    08:00 +10°C° 0 mm 8 mps 757 mmHg 86%
    09:00 +10°C° 0 mm 8 mps 758 mmHg 84%
    10:00 +10°C° 0 mm 8 mps 758 mmHg 82%
    11:00 +10°C° 0 mm 8 mps 758 mmHg 80%
    12:00 +10°C° 0 mm 8 mps 758 mmHg 78%
    13:00 +10°C° 0 mm 8 mps 759 mmHg 75%
    14:00 +10°C° 0 mm 9 mps 759 mmHg 74%
    15:00 +10°C° 0 mm 9 mps 759 mmHg 73%
    16:00 +10°C° 0 mm 9 mps 760 mmHg 72%
    17:00 +8°C° 0 mm 10 mps 760 mmHg 72%
    18:00 +7°C° 0 mm 10 mps 761 mmHg 73%
    19:00 +7°C° 0 mm 10 mps 761 mmHg 74%
    20:00 +6°C° 0 mm 11 mps 762 mmHg 73%
    21:00 +6°C° 0 mm 11 mps 763 mmHg 72%
    22:00 +5°C° 0 mm 12 mps 763 mmHg 72%
    23:00 +5°C° 0 mm 12 mps 764 mmHg 71%

    18 December, Tuesday

    Time Temperature Precipitation Wind Pressure Humidity
    00:00 +5°C° 0 mm 12 mps 764 mmHg 71%
    01:00 +5°C° 0 mm 12 mps 764 mmHg 70%
    02:00 +6°C° 0 mm 11 mps 765 mmHg 70%
    03:00 +6°C° 0 mm 11 mps 765 mmHg 71%
    04:00 +6°C° 0 mm 10 mps 766 mmHg 71%
    05:00 +5°C° 0 mm 10 mps 766 mmHg 72%
    06:00 +5°C° 0 mm 9 mps 767 mmHg 74%
    07:00 +5°C° 0 mm 9 mps 767 mmHg 75%
    08:00 +6°C° 0 mm 8 mps 768 mmHg 72%
    09:00 +6°C° 0 mm 8 mps 768 mmHg 70%
    10:00 +8°C° 0 mm 7 mps 768 mmHg 68%
    11:00 +9°C° 0 mm 7 mps 768 mmHg 64%
    12:00 +10°C° 0 mm 7 mps 768 mmHg 60%
    13:00 +11°C° 0 mm 6 mps 768 mmHg 56%
    14:00 +11°C° 0 mm 6 mps 768 mmHg 57%
    15:00 +12°C° 0 mm 5 mps 768 mmHg 59%
    16:00 +10°C° 0 mm 5 mps 768 mmHg 60%
    17:00 +9°C° 0 mm 5 mps 768 mmHg 62%
    18:00 +10°C° 0 mm 4 mps 768 mmHg 64%
    19:00 +8°C° 0 mm 4 mps 768 mmHg 66%
    20:00 +7°C° 0 mm 4 mps 768 mmHg 65%
    21:00 +8°C° 0 mm 3 mps 768 mmHg 63%
    22:00 +7°C° 0 mm 3 mps 768 mmHg 62%
    23:00 +7°C° 0 mm 2 mps 767 mmHg 60%

    19 December, Wednesday

    Time Temperature Precipitation Wind Pressure Humidity
    00:00 +7°C° 0 mm 2 mps 767 mmHg 57%
    01:00 +7°C° 0 mm 2 mps 767 mmHg 55%
    02:00 +7°C° 0 mm 2 mps 767 mmHg 54%
    03:00 +7°C° 0 mm 2 mps 767 mmHg 53%
    04:00 +7°C° 0 mm 2 mps 766 mmHg 51%
    05:00 +7°C° 0 mm 2 mps 766 mmHg 51%
    06:00 +6°C° 0 mm 2 mps 766 mmHg 50%
    07:00 +6°C° 0 mm 2 mps 766 mmHg 49%
    08:00 +8°C° 0 mm 2 mps 766 mmHg 49%
    09:00 +9°C° 0 mm 2 mps 766 mmHg 48%
    10:00 +10°C° 0 mm 2 mps 766 mmHg 47%
    11:00 +12°C° 0 mm 2 mps 766 mmHg 47%
    12:00 +13°C° 0 mm 2 mps 765 mmHg 46%
    13:00 +13°C° 0 mm 2 mps 765 mmHg 45%
    14:00 +13°C° 0 mm 2 mps 765 mmHg 49%
    15:00 +13°C° 0 mm 2 mps 764 mmHg 53%
    16:00 +12°C° 0 mm 2 mps 764 mmHg 57%
    17:00 +10°C° 0 mm 3 mps 764 mmHg 60%
    18:00 +10°C° 0 mm 3 mps 764 mmHg 63%
    19:00 +9°C° 0 mm 3 mps 764 mmHg 67%
    20:00 +8°C° 0 mm 4 mps 764 mmHg 66%
    21:00 +8°C° 0 mm 4 mps 764 mmHg 66%
    22:00 +8°C° 0 mm 4 mps 764 mmHg 66%
    23:00 +8°C° 0 mm 5 mps 764 mmHg 65%

    20 December, Thursday

    Time Temperature Precipitation Wind Pressure Humidity
    00:00 +8°C° 0 mm 5 mps 763 mmHg 65%
    01:00 +8°C° 0 mm 5 mps 763 mmHg 65%
    02:00 +8°C° 0 mm 5 mps 763 mmHg 65%
    03:00 +8°C° 0 mm 6 mps 762 mmHg 66%
    04:00 +8°C° 0 mm 6 mps 762 mmHg 67%
    05:00 +8°C° 0.1 mm 6 mps 762 mmHg 68%
    06:00 +8°C° 0.1 mm 7 mps 762 mmHg 70%
    07:00 +9°C° 0.1 mm 7 mps 762 mmHg 71%
    08:00 +9°C° 0.8 mm 7 mps 761 mmHg 74%
    09:00 +10°C° 0.8 mm 7 mps 761 mmHg 76%
    10:00 +10°C° 0.8 mm 7 mps 761 mmHg 78%
    11:00 +10°C° 2.8 mm 7 mps 760 mmHg 82%
    12:00 +10°C° 2.8 mm 6 mps 760 mmHg 85%
    13:00 +10°C° 2.8 mm 6 mps 759 mmHg 88%
    14:00 +10°C° 0.4 mm 6 mps 759 mmHg 86%
    15:00 +10°C° 0.4 mm 6 mps 759 mmHg 84%
    16:00 +10°C° 0.4 mm 6 mps 759 mmHg 82%
    17:00 +10°C° 0.3 mm 6 mps 759 mmHg 82%
    18:00 +10°C° 0.3 mm 6 mps 759 mmHg 82%
    19:00 +10°C° 0.3 mm 6 mps 760 mmHg 82%
    20:00 +10°C° 0.2 mm 6 mps 760 mmHg 82%
    21:00 +9°C° 0.2 mm 6 mps 760 mmHg 82%
    22:00 +9°C° 0.2 mm 6 mps 760 mmHg 82%
    23:00 +9°C° 0.5 mm 5 mps 760 mmHg 83%
    Show more